{"data":{"norad_id":68259,"epoch":"2026-09-20T02:57:46.302912Z","epoch_age_seconds":83638,"freshness":"FRESH","line1":"1 68259U 26054AD  26263.12345258  .00010769  00000+0  32930-3 0  9998","line2":"2 68259  53.1565 103.5820 0001227  91.1342 268.9801 15.34410393 28892","mean_motion":15.34410393,"eccentricity":0.0001227,"inclination_deg":53.1565,"raan_deg":103.582,"arg_perigee_deg":91.1342,"mean_anomaly_deg":268.9801,"bstar":0.0003293,"rev_number":2889,"period_min":93.847122423655,"perigee_km":461.83298288797,"apogee_km":463.51171750251,"semimajor_km":6840.8093501952,"source":"CELESTRAK","updated_at":"2026-09-20T09:00:43.845001Z"}}